Location: Alvediston
(51.0078°N, 2.0364°W)
Time: 06:28:25
(UTC+00:00)

STARLINK-1008 - Pass Details

Date: 27 February 2020
Orbit: 549 x 550 km, 53.0° (Epoch: 09 April)

Event Time Altitude Azimuth Distance (km) Brightness Sun altitude
Rises 18:15:49 0° 264° (W) 2,721 10.2 -5.7°
Reaches altitude 10° 18:18:04 10° 266° (W) 1,828 8.2 -6.0°
Maximum altitude 18:22:13 70° 351° (N) 589 3.8 -6.7°
Drops below altitude 10° 18:26:22 10° 76° (ENE) 1,832 5.6 -7.3°
Enters shadow 18:26:34 - 76° (ENE) 1,907 5.7 -7.4°
